[[{"header":{"parameterUnit":"m.s-1","parameterCategory":1,"la1":30.2991,"la2":30.254,"lo1":-89.0895,"lo2":-89.0444,"dy":0.0017,"dx":0.0017,"nx":28,"ny":28,"refTime":"2024-08-16T21:00:00:Z","depth":0,"parameterNumber":2,"parameterNumberName":"U-component_of_WINDS"},"data":[0,0,0,0,0,0,0,0,0,0,0,0,0,0,0,0,0,0,0,0,0,0,0,0,0,0,0,0,0,0,0,0,0,0,0,0,0,0,0,0,0,0,0,0,0,0,0,0,0,0,0,0,0,0,0,0,0,0,-3.3028,-3.3028,0,-3.303,-3.303,-3.303,-3.2941,-3.2939,-3.2937,-3.2934,-3.2936,-3.2938,-3.294,0,0,0,0,0,0,0,0,0,0,0,0,0,-3.2946,-3.2948,-3.3028,-3.3028,-3.3028,-3.303,-3.303,-3.303,-3.2942,-3.2939,-3.2936,-3.2933,-3.2935,-3.2938,-3.2941,0,0,0,0,0,0,0,0,0,0,0,0,0,-3.2968,-3.2948,-3.3028,-3.2984,-3.298,-3.303,-3.303,-3.303,-3.2942,-3.2939,-3.2935,-3.2932,-3.2934,-3.2938,-3.2941,-3.3033,0,0,-3.2951,-3.2953,0,0,0,0,0,0,0,0,-3.2967,-3.2971,-3.299,-3.2987,-3.2983,-3.2982,-3.3002,-3.3031,-3.2943,-3.2957,-3.2934,-3.293,-3.2954,-3.2956,-3.2964,-3.3033,-3.3033,-3.2952,-3.2954,-3.2955,-3.2956,0,0,0,0,0,0,0,-3.2966,-3.2971,-3.3028,-3.2991,-3.2986,-3.2964,-3.2963,-3.3007,-3.2975,-3.2955,-3.2949,-3.295,-3.2951,-3.2961,-3.2963,-3.3033,-3.2952,-3.2955,-3.2957,-3.2958,-3.3178,-3.3182,0,0,0,0,0,0,-3.297,-3.297,-3.3028,-3.3029,-3.2966,-3.2968,-3.2967,-3.2986,-3.2974,-3.2969,-3.2953,-3.2946,-3.2957,-3.2959,-3.2963,-3.307,-3.2955,-3.2958,-3.296,-3.3175,-3.3179,-3.3183,0,0,0,0,0,0,-3.2969,-3.2976,-3.3028,-3.2998,-3.3003,-3.2974,-3.2995,-3.2988,-3.2997,-3.2973,-3.2967,-3.2969,-3.2954,-3.2958,-3.3016,-3.3069,-3.296,-3.2963,-3.317,-3.3176,-3.3181,-3.3285,0,0,0,0,0,0,-3.2967,-3.2976,-3.3011,-3.2999,-3.3005,-3.3082,-3.2998,-3.299,-3.3003,-3.2994,-3.2986,-3.2981,-3.2952,-3.3012,-3.302,-3.3072,-3.2965,-3.3165,-3.3173,-3.3179,-3.3277,-3.3294,-3.3308,0,0,0,0,0,-3.2964,-3.304,-3.3013,-3.3021,-3.3047,-3.3085,-3.3088,-3.3053,-3.3008,-3.3042,-3.3027,-3.2982,-3.3062,-3.3019,-3.3027,-3.308,-3.3162,-3.3171,-3.3179,-3.327,-3.3291,-3.3308,0,0,0,0,0,0,-3.3058,-3.3037,-3.3007,-3.3081,-3.3086,-3.307,-3.3113,-3.3076,-3.3093,-3.3083,-3.3038,-3.3037,-3.3103,-3.3097,-3.3049,-3.3169,-3.3104,-3.3115,-3.317,-3.319,-3.3205,-3.3205,-3.2968,0,0,0,0,0,-3.3087,-3.312,-3.31,-3.3167,-3.3171,-3.3142,-3.3157,-3.313,-3.3132,-3.3133,-3.3122,-3.3127,-3.3153,-3.3171,-3.3193,-3.3276,-3.3273,-3.3317,-3.3333,-3.3346,-3.3355,-3.3399,-3.3419,-3.3212,-3.3212,-3.3211,0,0,-3.3148,-3.3141,-3.3164,-3.3186,-3.3186,-3.3221,-3.3144,-3.3184,-3.321,-3.3139,-3.3194,-3.3186,-3.3188,-3.3259,-3.329,-3.3256,-3.3412,-3.3357,-3.3367,-3.337,-3.341,-3.343,-3.3447,-3.3217,-3.3216,-3.3216,0,0,-3.3276,-3.3274,-3.333,-3.3333,-3.3334,-3.3314,-3.3328,-3.3318,-3.3311,-3.3365,-3.3313,-3.3343,-3.3389,-3.3392,-3.34,-3.3532,-3.3491,-3.354,-3.3622,-3.3666,-3.3682,-3.3696,-3.3744,-3.3761,-3.355,-3.355,-3.3551,0,-3.3351,-3.3403,-3.3364,-3.3408,-3.3419,-3.3358,-3.3415,-3.3418,-3.3427,-3.3437,-3.3399,-3.3456,-3.3453,-3.3524,-3.3557,-3.3565,-3.3579,-3.3541,-3.3683,-3.3697,-3.3709,-3.3754,-3.3772,-3.3556,-3.3556,-3.3555,-3.3555,0,-3.3495,-3.3532,-3.3577,-3.3588,-3.3604,-3.3654,-3.3623,-3.3645,-3.3616,-3.36,-3.3657,-3.3651,-3.3672,-3.3687,-3.3659,-3.3755,-3.3734,-3.3691,-3.3624,-3.3736,-3.3777,-3.3794,-3.3565,-3.3563,-3.3561,-3.356,0,0,-3.3682,-3.3672,-3.3689,-3.3694,-3.3692,-3.3719,-3.3767,-3.3788,-3.3807,-3.3816,-3.3855,-3.3896,-3.3856,-3.3865,-3.3837,-3.3875,-3.398,-3.3827,-3.3826,-3.3856,-3.4086,-3.4119,-3.414,-3.3953,-3.3956,-3.3959,-3.4086,0,-3.3807,-3.3889,-3.3856,-3.394,-3.3973,-3.3916,-3.3958,-3.3961,-3.3948,-3.3974,-3.3959,-3.3989,-3.3934,-3.3939,-3.3975,-3.396,-3.4026,-3.395,-3.3989,-3.3991,-3.3991,-3.4161,-3.4196,-3.4317,-3.4102,-3.4105,-3.4107,0,-3.3964,-3.398,-3.4068,-3.4061,-3.4074,-3.4112,-3.4129,-3.4155,-3.4157,-3.4145,-3.4156,-3.412,-3.4166,-3.4101,-3.4164,-3.4113,-3.4127,-3.4123,-3.4127,-3.4129,-3.4056,-3.4169,-3.4354,-3.4373,-3.4132,-3.413,-3.4128,0,-3.4092,-3.4136,-3.4194,-3.42,-3.4193,-3.4221,-3.422,-3.4219,-3.4234,-3.4249,-3.4258,-3.4278,-3.4289,-3.4306,-3.4276,-3.4231,-3.4344,-3.4275,-3.4335,-3.4336,-3.4362,-3.4361,-3.4553,-3.4371,-3.4371,-3.437,-3.437,0,-3.4236,-3.4292,-3.4252,-3.4288,-3.4349,-3.4311,-3.4373,-3.4364,-3.4365,-3.4398,-3.435,-3.4382,-3.4341,-3.4369,-3.4346,-3.4403,-3.4408,-3.4399,-3.4393,-3.4404,-3.4405,-3.4412,-3.4403,-3.4375,-3.4374,-3.4373,-3.4372,0,-3.4389,-3.4365,-3.4425,-3.4414,-3.4412,-3.4458,-3.4448,-3.4481,-3.4465,-3.4508,-3.4516,-3.4491,-3.4522,-3.4494,-3.4524,-3.4508,-3.4584,-3.4565,-3.4583,-3.4578,-3.464,-3.4634,-3.4843,-3.4869,-3.4671,-3.4672,-3.4674,0,-3.4483,-3.4525,-3.4519,-3.4538,-3.454,-3.4571,-3.4587,-3.4551,-3.4569,-3.4576,-3.4608,-3.4635,-3.4655,-3.4707,-3.4692,-3.4714,-3.4695,-3.4767,-3.4698,-3.4709,-3.4697,-3.4695,-3.4699,-3.4781,-3.4784,-3.4785,-3.4787,0,-3.4651,-3.4637,-3.4662,-3.4683,-3.4703,-3.4717,-3.4727,-3.4746,-3.4709,-3.4732,-3.4764,-3.4779,-3.481,-3.4838,-3.4855,-3.4853,-3.4815,-3.4809,-3.4824,-3.4836,-3.4845,-3.4841,-3.4621,-3.4804,-3.4802,-3.4801,-3.48,-3.48,-3.4777,-3.4813,-3.4814,-3.4843,-3.4848,-3.4859,-3.489,-3.4878,-3.4904,-3.4926,-3.4904,-3.4942,-3.4944,-3.4964,-3.4967,-3.4997,-3.4967,-3.4989,-3.4994,-3.5,-3.501,-3.4841,-3.5,-3.4999,-3.4999,-3.4998,-3.4998,0,-3.4944,-3.4942,-3.497,-3.4986,-3.501,-3.4972,-3.4982,-3.5003,-3.5038,-3.5044,-3.5065,-3.5102,-3.5128,-3.5115,-3.5139,-3.5165,-3.5148,-3.5172,-3.517,-3.517,-3.5035,-3.502,-3.5186,-3.5186,-3.5186,-3.5186,-3.5186,-3.5186,-3.5033,-3.5091,-3.5077,-3.5137,-3.5134,-3.5172,-3.5182,-3.5192,-3.5196,-3.524,-3.5262,-3.5254,-3.5252,-3.5275,-3.5298,-3.5293,-3.5304,-3.5336,-3.5325,-3.5198,-3.518,-3.5162,-3.5148,-3.5338,-3.5339,-3.5458,-3.5459,-3.546]},{"header":{"parameterUnit":"m.s-1","parameterCategory":1,"la1":30.2991,"la2":30.254,"lo1":-89.0895,"lo2":-89.0444,"dy":0.0017,"dx":0.0017,"nx":28,"ny":28,"refTime":"2024-08-16T21:00:00:Z","depth":0,"parameterNumber":3,"parameterNumberName":"V-component_of_WINDS"},"data":[0,0,0,0,0,0,0,0,0,0,0,0,0,0,0,0,0,0,0,0,0,0,0,0,0,0,0,0,0,0,0,0,0,0,0,0,0,0,0,0,0,0,0,0,0,0,0,0,0,0,0,0,0,0,0,0,0,0,0.0747,0.0747,0,0.0782,0.0782,0.0783,0.085,0.0852,0.0853,0.0854,0.0889,0.0889,0.0889,0,0,0,0,0,0,0,0,0,0,0,0,0,0.074,0.0739,0.0747,0.0747,0.0748,0.0782,0.0782,0.0783,0.085,0.0852,0.0853,0.0855,0.0889,0.0889,0.0889,0,0,0,0,0,0,0,0,0,0,0,0,0,0.0755,0.0739,0.0747,0.0785,0.0789,0.0782,0.0782,0.0783,0.085,0.0852,0.0854,0.0856,0.0889,0.0889,0.0888,0.0846,0,0,0.0887,0.0887,0,0,0,0,0,0,0,0,0.0754,0.0755,0.0779,0.0783,0.0787,0.0814,0.0793,0.0804,0.0849,0.0827,0.0854,0.0857,0.0862,0.0864,0.0866,0.0847,0.0849,0.0887,0.0887,0.0887,0.0886,0,0,0,0,0,0,0,0.0753,0.0754,0.0761,0.078,0.0784,0.0801,0.0806,0.0795,0.0833,0.0829,0.0834,0.0837,0.0865,0.0867,0.0868,0.0849,0.0887,0.0887,0.0886,0.0886,0.08,0.0798,0,0,0,0,0,0,0.0746,0.0753,0.076,0.0762,0.0775,0.08,0.0805,0.0803,0.0833,0.084,0.0835,0.084,0.0867,0.0868,0.0869,0.0822,0.0887,0.0886,0.0886,0.0802,0.0799,0.0797,0,0,0,0,0,0,0.0746,0.0746,0.0758,0.0759,0.0762,0.0798,0.0795,0.0803,0.0805,0.0838,0.0845,0.083,0.0868,0.087,0.0852,0.0825,0.0886,0.0885,0.0804,0.0801,0.0798,0.0727,0,0,0,0,0,0,0.0745,0.0746,0.0729,0.0758,0.0761,0.0739,0.0794,0.0802,0.0804,0.081,0.0835,0.0841,0.087,0.0852,0.0851,0.0825,0.0885,0.0807,0.0803,0.0799,0.0732,0.0722,0.0714,0,0,0,0,0,0.0745,0.0707,0.0728,0.0728,0.0742,0.0737,0.0739,0.0773,0.0801,0.0785,0.0808,0.084,0.0828,0.085,0.0849,0.0822,0.0808,0.0804,0.0799,0.0736,0.0724,0.0714,0,0,0,0,0,0,0.0673,0.0712,0.0735,0.0706,0.0718,0.0749,0.073,0.0759,0.0763,0.0769,0.0811,0.0816,0.0793,0.0806,0.083,0.0784,0.0824,0.0819,0.0776,0.0765,0.0756,0.0752,0.0885,0,0,0,0,0,0.0655,0.0648,0.0682,0.0653,0.0658,0.0693,0.0692,0.0718,0.0732,0.0737,0.0758,0.077,0.077,0.0768,0.0769,0.0735,0.0742,0.0717,0.0708,0.07,0.0695,0.068,0.0669,0.0782,0.0782,0.0782,0,0,0.0615,0.0635,0.0628,0.0639,0.0651,0.0644,0.0696,0.0686,0.0681,0.0736,0.072,0.0736,0.0753,0.0727,0.0717,0.0737,0.0666,0.0694,0.0688,0.0687,0.0674,0.0663,0.0654,0.0779,0.078,0.078,0,0,0.0539,0.0553,0.0531,0.0543,0.0562,0.0586,0.0581,0.0608,0.0621,0.0606,0.0647,0.0643,0.064,0.0651,0.0656,0.0587,0.0618,0.0587,0.0538,0.0522,0.0514,0.0506,0.0482,0.0473,0.0582,0.0582,0.0581,0,0.0486,0.0477,0.0516,0.0503,0.0507,0.0558,0.0536,0.0546,0.0564,0.0566,0.0589,0.0589,0.0603,0.0582,0.0565,0.0568,0.0564,0.0583,0.0512,0.0505,0.0498,0.0476,0.0467,0.0578,0.0578,0.0578,0.0579,0,0.0413,0.0406,0.0386,0.0403,0.0405,0.0388,0.0425,0.0423,0.0449,0.047,0.0456,0.0476,0.0483,0.048,0.0504,0.0462,0.0475,0.0504,0.0545,0.0483,0.0462,0.0454,0.0572,0.0573,0.0575,0.0576,0,0,0.029,0.0331,0.0323,0.0332,0.0358,0.0354,0.034,0.0348,0.0345,0.0357,0.0347,0.0345,0.0373,0.0379,0.0406,0.0393,0.0338,0.0424,0.0425,0.0408,0.0294,0.0272,0.0261,0.036,0.0358,0.0357,0.0293,0,0.0219,0.0198,0.0234,0.0204,0.0199,0.0248,0.0237,0.0252,0.0272,0.0272,0.0295,0.0293,0.033,0.0334,0.0324,0.0347,0.0316,0.0352,0.0351,0.0351,0.0345,0.0251,0.0226,0.0164,0.0285,0.0284,0.0283,0,0.0133,0.0142,0.0112,0.0142,0.0141,0.013,0.0141,0.0139,0.0158,0.0175,0.0183,0.0215,0.0205,0.0245,0.0232,0.0256,0.0258,0.027,0.0269,0.0269,0.0312,0.0249,0.0146,0.0136,0.0271,0.0272,0.0273,0,0.0047,0.0052,0.0035,0.0041,0.0075,0.0067,0.0081,0.0102,0.0105,0.0115,0.0117,0.0125,0.013,0.0136,0.0171,0.0196,0.0154,0.0196,0.0167,0.0166,0.0155,0.0155,0.0051,0.0157,0.0157,0.0157,0.0157,0,-0.0036,-0.0056,-0.0003,-0.0014,-0.0034,0.0008,-0.0013,0.0006,0.0025,0.0019,0.0063,0.0057,0.0103,0.0103,0.013,0.0116,0.0117,0.0131,0.0138,0.0126,0.0125,0.0128,0.0133,0.0155,0.0155,0.0156,0.0156,0,-0.0136,-0.0102,-0.0117,-0.0082,-0.0073,-0.009,-0.006,-0.0068,-0.0043,-0.005,-0.0049,-0.001,-0.0008,0.0027,0.0037,0.0055,0.003,0.0046,0.0023,0.0028,-0.0002,-0.0,-0.0109,-0.0121,-0.0007,-0.0008,-0.0009,0,-0.0192,-0.0206,-0.0172,-0.0172,-0.016,-0.0161,-0.0157,-0.0115,-0.0113,-0.009,-0.0101,-0.0095,-0.0088,-0.0087,-0.0057,-0.0049,-0.0033,-0.0072,-0.0032,-0.0042,-0.0034,-0.0033,-0.0034,-0.0081,-0.0082,-0.0084,-0.0085,0,-0.0294,-0.0275,-0.0272,-0.0261,-0.0257,-0.0247,-0.0234,-0.0237,-0.0191,-0.019,-0.0187,-0.0181,-0.017,-0.0165,-0.0151,-0.0136,-0.0102,-0.0097,-0.0103,-0.0115,-0.0127,-0.0121,0.0,-0.0095,-0.0094,-0.0093,-0.0093,-0.0092,-0.0374,-0.0383,-0.036,-0.0356,-0.0342,-0.033,-0.0335,-0.031,-0.0307,-0.0294,-0.0269,-0.027,-0.0248,-0.0226,-0.0213,-0.0212,-0.0192,-0.0201,-0.0204,-0.0207,-0.0213,-0.0127,-0.0209,-0.0209,-0.0208,-0.0208,-0.0208,0,-0.0473,-0.0455,-0.0452,-0.0435,-0.0432,-0.0399,-0.0382,-0.0382,-0.0382,-0.0365,-0.0358,-0.0353,-0.0347,-0.0316,-0.0306,-0.0311,-0.0295,-0.031,-0.0309,-0.0306,-0.0231,-0.0227,-0.0322,-0.0322,-0.0322,-0.0322,-0.0322,-0.0322,-0.0525,-0.0539,-0.0517,-0.0523,-0.0504,-0.0504,-0.0497,-0.0485,-0.0471,-0.0467,-0.0461,-0.0441,-0.0417,-0.0404,-0.0397,-0.0387,-0.0386,-0.0405,-0.0391,-0.0322,-0.0311,-0.0301,-0.0297,-0.0405,-0.0405,-0.0466,-0.0467,-0.0467]}]]